• In Italy
  • List of Countries
  • For 7 days
  • Water Temperature
  • Satellite Maps
  • Weather Map
  • Weather Widgets
  • user-avatar
    Login

    Hourly Weather Darwin

    Today, 21 January, Sunday

    Time Temperature Precipitation Wind Pressure Humidity
    00:00 +28°C° 2.7 mm 2 mps 753 mmHg 88%
    01:00 +28°C° 1.8 mm 2 mps 752 mmHg 88%
    02:00 +28°C° 1.8 mm 2 mps 752 mmHg 89%
    03:00 +28°C° 0 mm 3 mps 752 mmHg 89%
    04:00 +28°C° 0.4 mm 3 mps 752 mmHg 88%
    05:00 +28°C° 0.4 mm 4 mps 752 mmHg 88%
    06:00 +28°C° 0.4 mm 4 mps 752 mmHg 88%
    07:00 +29°C° 1.5 mm 4 mps 752 mmHg 85%
    08:00 +30°C° 1.5 mm 4 mps 752 mmHg 82%
    09:00 +30°C° 0 mm 2 mps 753 mmHg 81%
    10:00 +31°C° 0.7 mm 2 mps 752 mmHg 78%
    11:00 +33°C° 0.7 mm 3 mps 752 mmHg 76%
    12:00 +33°C° 0.7 mm 4 mps 751 mmHg 74%
    13:00 +33°C° 0.2 mm 4 mps 751 mmHg 73%
    14:00 +33°C° 0.2 mm 5 mps 751 mmHg 73%
    15:00 +33°C° 0 mm 5 mps 750 mmHg 74%
    16:00 +32°C° 0.7 mm 6 mps 751 mmHg 78%
    17:00 +30°C° 0.7 mm 6 mps 751 mmHg 82%
    18:00 +29°C° 0.7 mm 6 mps 751 mmHg 86%
    19:00 +29°C° 2.1 mm 6 mps 751 mmHg 88%
    20:00 +29°C° 2.1 mm 6 mps 752 mmHg 89%
    21:00 +28°C° 0 mm 5 mps 752 mmHg 91%
    22:00 +28°C° 3.2 mm 6 mps 752 mmHg 91%
    23:00 +28°C° 3.2 mm 6 mps 752 mmHg 91%

    Tomorrow, 22 January, Monday

    Time Temperature Precipitation Wind Pressure Humidity
    00:00 +28°C° 3.2 mm 7 mps 752 mmHg 92%
    01:00 +28°C° 7 mm 6 mps 752 mmHg 92%
    02:00 +28°C° 7 mm 6 mps 751 mmHg 92%
    03:00 +28°C° 7 mm 6 mps 751 mmHg 93%
    04:00 +28°C° 5.9 mm 6 mps 751 mmHg 93%
    05:00 +28°C° 5.9 mm 6 mps 751 mmHg 93%
    06:00 +27°C° 5.9 mm 5 mps 752 mmHg 93%
    07:00 +28°C° 1.3 mm 5 mps 752 mmHg 90%
    08:00 +29°C° 1.3 mm 5 mps 752 mmHg 88%
    09:00 +30°C° 1.3 mm 5 mps 752 mmHg 86%
    10:00 +30°C° 1 mm 5 mps 752 mmHg 85%
    11:00 +30°C° 1 mm 6 mps 751 mmHg 85%
    12:00 +32°C° 1 mm 6 mps 751 mmHg 84%
    13:00 +30°C° 1.3 mm 6 mps 751 mmHg 85%
    14:00 +30°C° 1.3 mm 6 mps 751 mmHg 85%
    15:00 +30°C° 1.3 mm 6 mps 750 mmHg 86%
    16:00 +30°C° 1.9 mm 6 mps 750 mmHg 87%
    17:00 +29°C° 1.9 mm 6 mps 750 mmHg 88%
    18:00 +29°C° 1.9 mm 6 mps 751 mmHg 88%
    19:00 +29°C° 2.3 mm 6 mps 751 mmHg 89%
    20:00 +29°C° 2.3 mm 6 mps 751 mmHg 89%
    21:00 +29°C° 2.3 mm 6 mps 752 mmHg 90%
    22:00 +28°C° 2.9 mm 6 mps 752 mmHg 90%
    23:00 +28°C° 2.9 mm 6 mps 752 mmHg 90%

    Day after tomorrow, 23 January, Tuesday

    Time Temperature Precipitation Wind Pressure Humidity
    00:00 +28°C° 2.9 mm 6 mps 752 mmHg 90%
    01:00 +28°C° 1.4 mm 6 mps 752 mmHg 89%
    02:00 +28°C° 1.4 mm 6 mps 751 mmHg 88%
    03:00 +28°C° 1.4 mm 6 mps 751 mmHg 87%
    04:00 +28°C° 0.7 mm 6 mps 751 mmHg 87%
    05:00 +28°C° 0.7 mm 5 mps 751 mmHg 87%
    06:00 +28°C° 0.7 mm 5 mps 751 mmHg 87%
    07:00 +29°C° 0.1 mm 5 mps 752 mmHg 84%
    08:00 +30°C° 0.1 mm 5 mps 752 mmHg 81%
    09:00 +32°C° 0.1 mm 5 mps 752 mmHg 78%
    10:00 +33°C° 0.2 mm 5 mps 752 mmHg 74%
    11:00 +33°C° 0.2 mm 5 mps 752 mmHg 70%
    12:00 +34°C° 0.2 mm 5 mps 751 mmHg 66%
    13:00 +34°C° 0.7 mm 5 mps 751 mmHg 68%
    14:00 +33°C° 0.7 mm 5 mps 751 mmHg 70%
    15:00 +33°C° 0.7 mm 5 mps 750 mmHg 72%
    16:00 +32°C° 0.8 mm 5 mps 750 mmHg 75%
    17:00 +32°C° 0.8 mm 5 mps 751 mmHg 79%
    18:00 +30°C° 0.8 mm 5 mps 751 mmHg 82%
    19:00 +29°C° 0.4 mm 5 mps 751 mmHg 83%
    20:00 +29°C° 0.4 mm 5 mps 752 mmHg 84%
    21:00 +29°C° 0.4 mm 5 mps 752 mmHg 85%
    22:00 +29°C° 0.6 mm 5 mps 752 mmHg 86%
    23:00 +29°C° 0.6 mm 5 mps 752 mmHg 87%

    24 January, Wednesday

    Time Temperature Precipitation Wind Pressure Humidity
    00:00 +28°C° 0.6 mm 5 mps 752 mmHg 88%
    01:00 +28°C° 0.5 mm 5 mps 752 mmHg 88%
    02:00 +28°C° 0.5 mm 5 mps 751 mmHg 88%
    03:00 +28°C° 0.5 mm 5 mps 750 mmHg 88%
    04:00 +28°C° 0.7 mm 5 mps 751 mmHg 88%
    05:00 +28°C° 0.7 mm 5 mps 751 mmHg 88%
    06:00 +28°C° 0.7 mm 4 mps 751 mmHg 88%
    07:00 +29°C° 0.9 mm 4 mps 751 mmHg 84%
    08:00 +30°C° 0.9 mm 5 mps 751 mmHg 81%
    09:00 +32°C° 0.9 mm 5 mps 752 mmHg 77%
    10:00 +33°C° 1 mm 5 mps 751 mmHg 73%
    11:00 +34°C° 1 mm 6 mps 751 mmHg 70%
    12:00 +35°C° 1 mm 6 mps 751 mmHg 66%
    13:00 +35°C° 0.3 mm 6 mps 750 mmHg 66%
    14:00 +35°C° 0.3 mm 7 mps 750 mmHg 66%
    15:00 +35°C° 0.3 mm 7 mps 749 mmHg 67%
    16:00 +34°C° 0.2 mm 6 mps 749 mmHg 71%
    17:00 +33°C° 0.2 mm 6 mps 750 mmHg 76%
    18:00 +32°C° 0.2 mm 5 mps 750 mmHg 80%
    19:00 +30°C° 1.2 mm 5 mps 750 mmHg 83%
    20:00 +30°C° 1.2 mm 5 mps 751 mmHg 85%
    21:00 +29°C° 1.2 mm 5 mps 751 mmHg 87%
    22:00 +29°C° 0.3 mm 5 mps 751 mmHg 87%
    23:00 +29°C° 0.3 mm 5 mps 751 mmHg 87%

    25 January, Thursday

    Time Temperature Precipitation Wind Pressure Humidity
    00:00 +29°C° 0.3 mm 5 mps 751 mmHg 88%
    01:00 +29°C° 0 mm 5 mps 750 mmHg 87%
    02:00 +29°C° 0 mm 6 mps 750 mmHg 87%
    03:00 +29°C° 0 mm 6 mps 749 mmHg 87%
    04:00 +30°C° 0.1 mm 6 mps 750 mmHg 87%
    05:00 +30°C° 0.1 mm 6 mps 750 mmHg 87%
    06:00 +30°C° 0.1 mm 6 mps 750 mmHg 87%
    07:00 +32°C° 0.2 mm 7 mps 751 mmHg 84%
    08:00 +33°C° 0.2 mm 7 mps 751 mmHg 80%
    09:00 +34°C° 0.2 mm 7 mps 752 mmHg 77%
    10:00 +34°C° 1.1 mm 7 mps 751 mmHg 76%
    11:00 +34°C° 1.1 mm 7 mps 751 mmHg 75%
    12:00 +34°C° 1.1 mm 7 mps 750 mmHg 74%
    13:00 +35°C° 0.7 mm 7 mps 750 mmHg 73%
    14:00 +35°C° 0.7 mm 7 mps 749 mmHg 72%
    15:00 +35°C° 0.7 mm 8 mps 749 mmHg 71%
    16:00 +34°C° 0.4 mm 7 mps 749 mmHg 74%
    17:00 +34°C° 0.4 mm 7 mps 749 mmHg 77%
    18:00 +33°C° 0.4 mm 7 mps 750 mmHg 80%
    19:00 +33°C° 0 mm 7 mps 750 mmHg 81%
    20:00 +32°C° 0 mm 7 mps 750 mmHg 82%
    21:00 +32°C° 0 mm 7 mps 751 mmHg 83%
    22:00 +32°C° 0 mm 7 mps 751 mmHg 83%
    23:00 +32°C° 0 mm 8 mps 751 mmHg 83%

    26 January, Friday

    Time Temperature Precipitation Wind Pressure Humidity
    00:00 +32°C° 0 mm 8 mps 750 mmHg 83%
    01:00 +32°C° 0.1 mm 8 mps 750 mmHg 84%
    02:00 +32°C° 0.1 mm 8 mps 749 mmHg 84%
    03:00 +32°C° 0.1 mm 8 mps 749 mmHg 85%
    04:00 +32°C° 0.1 mm 8 mps 749 mmHg 84%
    05:00 +32°C° 0.1 mm 8 mps 750 mmHg 84%
    06:00 +32°C° 0.1 mm 8 mps 750 mmHg 84%
    07:00 +32°C° 0.1 mm 9 mps 751 mmHg 81%
    08:00 +33°C° 0.1 mm 9 mps 751 mmHg 78%
    09:00 +34°C° 0.1 mm 9 mps 751 mmHg 76%
    10:00 +34°C° 0.8 mm 9 mps 751 mmHg 74%
    11:00 +34°C° 0.8 mm 9 mps 751 mmHg 73%
    12:00 +35°C° 0.8 mm 9 mps 750 mmHg 71%
    13:00 +35°C° 0.3 mm 9 mps 750 mmHg 72%
    14:00 +34°C° 0.3 mm 9 mps 749 mmHg 72%
    15:00 +34°C° 0.3 mm 9 mps 749 mmHg 73%
    16:00 +34°C° 0.1 mm 9 mps 749 mmHg 75%
    17:00 +33°C° 0.1 mm 9 mps 749 mmHg 78%
    18:00 +32°C° 0.1 mm 8 mps 750 mmHg 80%
    19:00 +32°C° 0 mm 8 mps 750 mmHg 81%
    20:00 +32°C° 0 mm 8 mps 750 mmHg 81%
    21:00 +33°C° 0 mm 8 mps 750 mmHg 81%
    22:00 +32°C° 0.6 mm 9 mps 750 mmHg 81%
    23:00 +32°C° 0.6 mm 9 mps 750 mmHg 82%
    Show more